Theta_e
342 342 343 343 343 342 342 344 344 346 345 344 343 345 345 345 345 342 342 340 338 336 334 332 331 330 330 330 330 331 331 329 329 330 327 324 326 326
342 343 343 343 342 343 342 341 342 342 345 343 343 344 345 345 345 345 343 342 340 339 338 336 332 330 330 331 334 336 331 330 328 327 327 322 322 325
343 343 344 344 343 343 343 343 341 342 344 345 343 342 345 345 346 344 344 343 342 340 340 339 336 333 331 336 339 334 332 329 329 325 326 322 320 323
346 345 344 342 343 345 345 344 343 343 343 344 344 342 344 346 345 346 346 344 343 341 341 340 340 334 333 339 340 337 338 334 329 325 323 321 320 323
342 342 342 344 344 342 341 343 343 343 344 345 344 345 345 345 345 345 346 345 344 343 342 341 340 337 339 342 341 341 340 339 338 331 323 322 322 324
343 343 343 344 340 338 339 338 338 343 343 344 345 345 346 344 344 345 346 346 344 343 342 341 341 341 341 342 342 342 342 342 341 339 329 322 323 325
344 345 343 343 340 340 337 337 345 346 347 346 344 343 346 344 344 344 346 345 346 344 342 340 341 343 343 340 342 342 342 342 343 342 340 328 323 325
342 342 342 343 342 342 336 338 345 346 346 348 346 346 346 346 345 345 344 346 345 345 345 345 342 344 345 343 342 341 343 345 343 344 344 342 335 327
343 342 344 345 342 342 337 338 341 346 346 346 347 347 346 344 345 346 346 345 343 343 344 345 344 343 343 344 344 343 343 343 343 344 344 343 342 340
342 344 346 345 342 342 340 337 340 344 345 347 346 346 345 345 345 344 343 344 343 342 342 345 344 343 344 344 344 344 345 343 343 343 345 345 344 342
347 346 345 346 344 341 342 339 337 338 339 340 341 341 342 344 345 345 346 345 344 343 343 345 345 344 344 344 343 343 344 344 343 343 344 343 343 340
347 346 344 344 343 340 341 341 337 336 336 337 339 340 341 342 342 342 342 342 344 345 344 343 346 344 344 343 344 342 344 344 344 344 343 343 343 341
343 343 341 336 341 338 340 342 341 339 337 336 334 338 339 340 339 337 337 339 342 341 341 342 341 343 342 342 341 340 339 340 342 342 342 341 341 342
345 342 343 339 338 335 335 341 341 341 340 338 336 333 334 338 339 338 338 337 337 337 334 334 332 337 334 335 339 341 341 341 340 341 343 342 340 338
344 342 337 337 340 339 335 338 337 339 339 340 339 336 335 334 335 336 336 333 330 327 326 328 329 334 336 331 326 328 332 337 339 340 340 339 339 338
343 338 339 337 339 338 336 335 337 338 338 338 337 339 337 337 336 335 332 329 327 329 333 334 331 331 341 339 339 339 336 329 337 340 340 338 339 339
341 341 341 339 336 337 336 336 336 337 337 336 338 336 337 338 337 337 335 333 329 325 329 331 333 332 336 336 335 334 335 337 343 339 340 339 338 339
336 337 338 338 338 336 334 335 338 338 338 338 336 338 336 337 338 337 336 335 333 327 325 329 333 334 333 332 332 333 332 332 336 337 336 337 335 337
338 339 339 339 338 338 338 338 338 338 338 337 336 336 337 337 337 336 336 335 335 333 325 329 334 335 335 335 334 331 328 329 332 332 335 336 335 334
340 340 339 338 338 338 338 339 338 338 337 336 337 336 334 334 335 333 331 327 329 327 324 328 336 336 336 336 334 330 328 326 325 328 332 331 331 332
335 335 337 336 336 337 337 337 336 335 334 334 335 335 335 336 335 332 330 327 327 325 325 325 328 332 334 334 333 331 328 325 326 326 325 323 327 330
329 329 332 333 335 336 335 335 333 332 333 334 334 334 334 335 335 335 333 329 327 326 327 328 330 331 329 327 329 330 329 322 320 320 323 323 323 325
327 328 331 330 331 332 333 333 334 334 333 333 334 333 333 333 333 333 333 331 327 328 328 326 327 328 329 331 331 331 330 328 326 325 324 323 321 321
Wind_Speed
26 24 23 19 18 21 22 20 19 20 20 20 19 19 20 20 25 27 30 31 31 32 33 33 32 30 26 25 24 23 23 22 22 21 20 20 20 19
26 26 27 26 24 22 22 24 25 24 26 23 18 15 14 18 19 26 28 30 32 32 32 33 34 33 29 27 26 27 26 25 24 23 23 22 22 20
22 25 25 23 22 21 22 25 27 27 30 28 26 19 21 16 16 19 25 28 32 33 33 32 32 35 32 28 24 23 25 26 26 25 24 23 23 23
18 19 16 15 16 17 18 20 24 27 29 32 27 25 22 20 18 20 20 26 30 33 33 32 32 33 32 29 25 22 21 21 23 24 25 24 23 22
14 15 13 13 13 14 17 20 23 26 29 31 30 27 24 22 21 22 24 22 27 30 30 32 31 31 31 30 28 25 24 23 23 23 24 25 24 24
14 14 13 12 11 13 16 20 22 26 29 30 29 30 30 27 23 23 24 25 24 28 29 30 30 31 33 32 29 27 26 24 25 26 26 27 27 27
14 13 12 11 11 13 17 16 15 17 21 28 30 30 31 30 29 27 26 27 26 25 28 30 32 32 33 34 33 30 28 29 28 29 29 29 29 29
13 12 11 10 10 11 14 14 13 13 15 17 23 27 29 26 25 25 25 25 25 27 29 33 36 35 33 34 33 31 31 31 32 31 31 31 32 32
14 14 12 10 9 9 10 12 9 9 10 11 20 25 18 20 20 21 26 27 32 28 27 32 32 38 37 35 32 31 31 30 30 31 32 34 34 34
14 15 15 12 10 9 8 7 5 3 5 7 10 13 13 17 21 18 16 19 22 27 27 29 31 31 35 36 34 32 31 31 31 30 30 32 33 33
16 16 17 16 12 10 8 7 5 4 5 6 8 8 8 13 19 16 16 19 22 25 24 29 33 28 29 29 29 30 31 31 31 31 31 31 30 30
19 18 17 15 13 12 10 9 6 5 7 8 9 10 14 14 11 13 14 16 13 29 27 20 18 20 18 20 22 20 20 23 26 25 21 26 29 30
21 21 19 18 15 13 12 11 9 7 10 11 11 11 12 13 13 10 10 14 16 13 4 14 19 17 16 15 16 16 21 21 23 27 25 23 21 24
22 20 19 18 20 17 17 13 10 11 12 13 12 12 12 12 11 13 15 15 16 15 11 9 14 13 12 19 21 22 27 28 25 28 26 21 20 17
22 21 22 24 21 18 17 14 14 14 12 15 16 12 11 11 13 15 16 18 19 18 19 20 20 21 25 24 20 14 14 17 23 29 25 22 24 22
21 21 19 19 18 19 17 16 14 13 14 16 17 14 13 15 15 16 17 17 19 17 15 15 18 19 20 19 20 21 22 20 20 23 28 25 26 25
20 20 21 21 19 16 14 14 15 16 19 20 21 19 19 19 18 17 18 18 20 19 17 15 13 15 18 17 17 16 15 18 16 16 18 23 24 22
18 18 19 21 23 24 26 25 23 22 23 25 24 24 22 22 21 19 20 21 21 19 18 18 17 15 15 16 16 16 18 16 17 17 17 18 21 22
21 22 23 24 24 26 28 29 25 21 21 21 19 19 19 22 22 22 23 24 25 21 18 18 19 20 19 18 14 14 14 17 17 16 21 23 21 19
21 23 24 24 23 22 21 19 16 16 15 14 19 20 17 18 20 20 19 19 19 18 17 17 18 21 22 21 18 12 8 8 8 16 21 23 24 23
15 14 14 14 15 14 13 12 14 13 13 13 14 15 16 18 20 18 16 14 15 15 18 21 21 20 17 19 20 17 11 8 7 8 9 15 21 22
12 12 11 11 12 11 11 10 11 10 10 13 15 17 18 21 23 21 21 21 20 18 17 15 16 18 23 24 23 20 17 15 20 16 13 13 15 18
10 9 7 9 10 11 10 10 11 11 13 13 14 16 16 19 20 20 23 25 22 22 20 19 15 17 18 19 23 22 23 20 20 18 16 16 15 14
Wind_Direction
243 247 251 270 272 259 257 258 264 269 274 277 273 263 256 253 241 234 232 229 228 227 228 229 233 233 238 241 244 245 248 249 251 252 254 254 256 259
239 244 254 265 270 261 259 255 257 262 265 272 276 270 267 261 249 234 235 233 231 231 231 232 232 232 238 244 249 251 249 251 253 253 253 250 248 251
235 246 258 265 264 261 266 261 255 255 261 266 267 270 261 263 252 240 236 234 233 231 233 235 235 236 236 239 246 250 247 249 251 252 252 253 251 248
235 241 243 245 256 266 271 266 263 260 262 266 269 265 266 260 260 251 243 239 233 231 234 235 236 232 232 235 240 243 247 250 251 249 247 247 246 248
228 231 232 243 254 265 270 268 266 266 264 264 266 265 260 253 254 251 241 244 239 233 232 235 236 230 232 235 236 241 244 247 251 252 249 247 245 245
232 235 235 245 257 273 280 278 274 265 257 258 261 259 256 251 249 245 244 244 242 233 233 229 229 232 232 234 234 236 241 245 250 251 248 245 244 244
233 237 245 255 272 288 299 287 277 270 260 253 256 260 251 247 240 244 248 254 245 241 238 232 231 232 233 231 230 237 245 248 252 249 247 246 245 246
229 232 240 257 271 297 312 298 275 268 260 258 263 255 246 243 242 249 248 246 248 239 245 242 234 235 235 233 236 244 247 254 248 250 252 251 249 248
235 226 236 258 271 299 318 336 273 270 263 261 274 268 250 243 247 249 247 249 249 259 263 256 246 237 236 237 239 244 251 244 245 249 251 251 251 250
237 241 248 252 268 289 307 335 346 305 279 277 284 270 247 252 251 250 245 250 248 253 259 249 245 244 238 241 243 247 247 248 248 254 255 249 251 249
243 250 252 249 255 265 282 298 315 315 297 294 298 292 286 268 234 219 228 241 249 254 252 249 241 241 241 242 245 247 251 248 250 252 251 247 243 241
251 257 257 246 254 261 267 272 277 300 287 286 282 280 278 286 278 270 252 257 270 263 239 230 251 225 242 241 246 248 250 251 248 249 248 248 246 239
260 254 256 263 256 257 255 261 276 259 267 280 283 274 267 256 248 261 264 270 270 261 274 237 247 242 240 249 258 263 260 265 261 252 250 251 252 249
262 269 263 262 270 259 248 249 261 259 263 272 274 274 270 265 259 260 267 267 275 274 265 263 272 253 265 274 273 270 276 266 266 256 249 251 234 237
255 250 262 263 258 261 252 249 247 252 260 266 274 276 274 265 257 260 265 270 270 274 270 262 260 264 252 255 278 286 294 293 271 251 254 249 256 238
260 258 250 248 251 252 252 246 257 261 264 266 265 264 259 259 260 262 263 269 269 269 267 267 263 252 253 263 261 263 259 259 275 253 235 237 236 232
259 253 252 255 252 251 262 275 273 275 273 263 258 256 254 258 265 267 269 268 272 272 266 268 264 249 247 253 250 260 266 270 264 256 237 235 236 232
258 260 260 259 264 265 269 276 281 285 275 256 248 250 251 254 258 265 268 269 270 269 265 260 255 250 252 253 253 259 264 269 260 257 256 246 242 239
264 272 277 276 275 275 275 278 286 292 279 249 242 243 249 256 251 263 268 267 267 264 259 252 250 243 245 248 259 273 271 264 260 254 249 248 245 242
273 273 275 275 278 281 274 267 264 272 262 259 255 249 248 253 262 266 264 269 261 253 252 258 250 245 244 250 259 268 260 264 257 249 253 252 256 255
281 281 280 278 272 271 267 270 271 265 249 243 238 240 246 251 253 256 259 255 251 256 257 254 263 266 258 259 250 255 255 250 253 265 265 252 250 250
314 286 277 281 278 279 275 275 274 263 261 257 253 251 256 263 256 256 250 249 250 245 251 260 262 261 255 256 256 253 246 257 260 253 261 245 241 243
359 342 291 281 289 287 288 293 275 273 273 273 271 266 265 263 260 263 265 247 243 261 266 258 254 260 257 252 253 255 249 252 256 245 238 237 232 230